This demonstration page uses our WeatherBlox Daily Observations layout. Learn more.

40.92945, -100.16068

Hourly Observations for March 26, 2017

Temp ( °F °C ) Dew Point ( °F °C ) Humidity (%) Winds ( mph kmh ) Pressure ( in mb ) Visibility ( mi km ) Precip ( " mm )
12:15 am 00:15 Cloudy with Mist and Fog 41 5.1 40 4.2 94 94 E 6 9 29.97 1015 2.5 4.02335 0 0
12:35 am 00:35 Cloudy with Mist and Fog 41 5 39 4.1 94 94 SE 6 9 29.97 1015 2.5 4.02335 0 0
12:55 am 00:55 Cloudy with Mist and Fog 41 5 39 4 93 93 ESE 6 9 29.97 1015 2.5 4.02335 0 0
1:15 am 01:15 Cloudy with Mist and Fog 41 4.9 39 4 94 94 ESE 5 7 29.97 1015 2.5 4.02335 0 0
1:35 am 01:35 Cloudy with Mist and Fog 41 5 39 4 93 93 SE 3 6 29.97 1015 2.5 4.02335 0 0
1:55 am 01:55 Cloudy with Mist and Fog 41 4.9 39 4 94 94 SE 5 7 29.97 1015 2 3.21868 0 0
2:15 am 02:15 Cloudy with Mist and Fog 41 4.8 39 4 95 95 Calm 29.97 1015 4 6.43736 0 0
2:35 am 02:35 Cloudy with Mist and Fog 41 4.8 39 4 95 95 ESE 5 7 29.97 1015 4 6.43736 0 0
2:55 am 02:55 Cloudy with Mist and Fog 41 5 39 4 93 93 SE 3 6 29.97 1015 2.5 4.02335 0 0
3:15 am 03:15 Cloudy with Mist and Fog 41 4.9 39 4.1 95 95 SSE 3 6 29.97 1015 3 4.82802 0 0
3:35 am 03:35 Cloudy with Mist and Fog 41 5 39 4.1 94 94 SSE 5 7 29.97 1015 2.5 4.02335 0 0
3:55 am 03:55 Cloudy with Mist and Fog 41 4.8 39 4 95 95 SSE 5 7 29.94 1014 2.5 4.02335 0 0
4:15 am 04:15 Cloudy with Mist and Fog 41 4.8 39 4 95 95 S 3 6 29.94 1014 3 4.82802 0 0
4:35 am 04:35 Cloudy with Mist and Fog 41 4.8 39 4 95 95 SSE 5 7 29.94 1014 4 6.43736 0 0
4:55 am 04:55 Cloudy with Mist and Fog 41 4.8 39 4 95 95 SSE 3 6 29.91 1013 5 8.0467 0 0
5:15 am 05:15 Cloudy 40 4.6 39 3.8 95 95 Calm 29.91 1013 10 16.0934 0 0
5:35 am 05:35 Cloudy 40 4.7 38 3.5 92 92 S 3 6 29.91 1013 10 16.0934 0 0
5:55 am 05:55 Cloudy 40 4.7 38 3.5 92 92 ESE 5 7 29.91 1013 7 11.26538 0 0
6:15 am 06:15 Cloudy 40 4.6 38 3.4 92 92 Calm 29.91 1013 10 16.0934 0 0
6:35 am 06:35 Cloudy 40 4.7 38 3.3 91 91 S 5 7 29.94 1014 10 16.0934 0 0
6:55 am 06:55 Cloudy 40 4.7 38 3.5 92 92 Calm 29.94 1014 10 16.0934 0 0
7:15 am 07:15 Cloudy 40 4.7 38 3.3 91 91 Calm 29.94 1014 10 16.0934 0 0
7:35 am 07:35 Cloudy 40 4.7 38 3.2 90 90 S 3 6 29.94 1014 10 16.0934 0 0
7:55 am 07:55 Cloudy 40 4.7 38 3.3 91 91 SSW 3 6 29.94 1014 10 16.0934 0 0
8:15 am 08:15 Cloudy 40 4.7 38 3.1 90 90 Calm 29.94 1014 10 16.0934 0 0
8:35 am 08:35 Cloudy 40 4.7 37 3 89 89 Calm 29.94 1014 10 16.0934 0 0
8:55 am 08:55 Cloudy 40 4.7 37 3 89 89 Calm 29.97 1015 10 16.0934 0 0
9:15 am 09:15 Cloudy 41 4.8 38 3.1 89 89 Calm 29.97 1015 10 16.0934 0 0
9:35 am 09:35 Cloudy 41 4.8 38 3.1 89 89 Calm 29.97 1015 10 16.0934 0 0
9:55 am 09:55 Cloudy 41 4.8 38 3.1 89 89 Calm 29.97 1015 10 16.0934 0 0
10:15 am 10:15 Cloudy 41 4.8 37 3 88 88 SSW 3 6 29.97 1015 10 16.0934 0 0
10:35 am 10:35 Cloudy 41 5 38 3.2 88 88 SSW 3 6 29.97 1015 10 16.0934 0 0
10:55 am 10:55 Cloudy 41 5 38 3.1 88 88 Calm 29.97 1015 10 16.0934 0 0
11:15 am 11:15 Cloudy 41 5.2 38 3.5 89 89 NE 3 6 29.97 1015 10 16.0934 0 0
11:35 am 11:35 Cloudy 42 5.5 39 3.9 90 90 NE 3 6 29.97 1015 10 16.0934 0 0
11:55 am 11:55 Cloudy 42 5.6 39 3.9 89 89 E 5 7 29.97 1015 10 16.0934 0 0
12:15 pm 12:15 Cloudy 42 5.7 39 3.7 87 87 NNE 3 6 29.97 1015 10 16.0934 0 0
12:35 pm 12:35 Cloudy 43 6 39 3.9 87 87 Calm 29.94 1014 10 16.0934 0 0
12:55 pm 12:55 Cloudy 43 6.2 39 4 86 86 Calm 29.94 1014 10 16.0934 0 0
1:15 pm 13:15 Cloudy 44 6.8 40 4.2 84 84 NNE 5 7 29.94 1014 10 16.0934 0 0
1:35 pm 13:35 Cloudy 46 7.6 40 4.6 82 82 NNE 7 11 29.94 1014 10 16.0934 0 0
1:55 pm 13:55 Cloudy 46 7.6 40 4.6 82 82 ESE 5 7 29.94 1014 10 16.0934 0 0
2:15 pm 14:15 Cloudy 46 8 40 4.6 79 79 Calm 29.94 1014 10 16.0934 0 0
2:35 pm 14:35 Cloudy 47 8.4 40 4.5 77 77 Calm 29.94 1014 10 16.0934 0 0
2:55 pm 14:55 Cloudy 48 9.1 41 5.1 76 76 N 3 6 29.88 1012 10 16.0934 0 0
3:15 pm 15:15 Partly Cloudy 51 10.3 42 5.6 73 73 NW 5 7 29.88 1012 10 16.0934 0 0
3:35 pm 15:35 Partly Cloudy 52 11 42 5.8 71 71 E 6 9 29.88 1012 10 16.0934 0 0
3:55 pm 15:55 Partly Cloudy 53 11.4 42 5.6 68 68 NE 3 6 29.85 1011 10 16.0934 0 0
4:15 pm 16:15 Sunny 53 11.7 42 5.3 65 65 SE 3 6 29.83 1010 10 16.0934 0 0
4:35 pm 16:35 Sunny 54 12.4 42 5.8 64 64 Calm 29.83 1010 10 16.0934 0 0
4:55 pm 16:55 Sunny 55 12.8 42 5.7 62 62 Calm 29.83 1010 10 16.0934 0 0
5:15 pm 17:15 Sunny 55 12.7 42 5.8 63 63 SE 7 11 29.83 1010 10 16.0934 0 0
5:35 pm 17:35 Sunny 55 12.6 43 6.2 65 65 SSE 12 19 29.83 1010 10 16.0934 0 0
5:55 pm 17:55 Sunny 53 11.8 42 5.8 67 67 S 10 17 29.88 1012 10 16.0934 0 0
6:15 pm 18:15 Partly Cloudy 54 12.2 42 5.7 65 65 SSE 12 19 29.85 1011 10 16.0934 0 0
6:35 pm 18:35 Partly Cloudy 53 11.8 42 5.6 66 66 SSE 9 15 29.88 1012 10 16.0934 0 0
6:55 pm 18:55 Sunny 53 11.5 42 5.5 67 67 SE 8 13 29.88 1012 10 16.0934 0 0
7:15 pm 19:15 Mostly Cloudy 51 10.6 43 6 73 73 ESE 10 17 29.91 1013 10 16.0934 0 0
7:35 pm 19:35 Cloudy 50 9.8 42 5.7 76 76 E 10 17 29.91 1013 10 16.0934 0 0
7:55 pm 19:55 Cloudy 49 9.3 42 5.5 77 77 ESE 9 15 29.91 1013 10 16.0934 0 0
8:15 pm 20:15 Cloudy 48 9.1 42 5.3 77 77 SE 8 13 29.91 1013 10 16.0934 0 0
8:35 pm 20:35 Cloudy 48 9 42 5.3 78 78 ESE 10 17 29.97 1015 10 16.0934 0 0
8:55 pm 20:55 Cloudy 48 8.9 41 5.2 78 78 ESE 9 15 29.97 1015 10 16.0934 0 0
9:15 pm 21:15 Cloudy 48 8.7 42 5.4 80 80 ESE 7 11 29.97 1015 10 16.0934 0 0
9:35 pm 21:35 Cloudy 47 8.5 42 5.4 81 81 SE 5 7 29.97 1015 10 16.0934 0 0
9:55 pm 21:55 Cloudy 46 8 42 5.5 84 84 SSE 3 6 29.97 1015 10 16.0934 0 0
10:15 pm 22:15 Cloudy 46 7.7 41 5.1 84 84 Calm 29.97 1015 10 16.0934 0 0
10:35 pm 22:35 Mostly Cloudy 45 7.1 40 4.6 84 84 Calm 29.97 1015 10 16.0934 0 0
10:55 pm 22:55 Cloudy 44 6.8 41 5.1 89 89 Calm 29.97 1015 10 16.0934 0 0
11:15 pm 23:15 Cloudy 43 6.3 40 4.7 90 90 Calm 29.97 1015 10 16.0934 0 0
11:35 pm 23:35 Cloudy 41 5.1 39 3.9 92 92 Calm 30 1016 10 16.0934 0 0
11:55 pm 23:55 Cloudy 40 4.6 38 3.5 93 93 Calm 30 1016 7 11.26538 0 0

Powered by AerisWeather